Home > Weather > Al-Jamiliyah > Past weeks

Flag for Qatar Past Weather in Al-Jamiliyah, Qatar — Yesterday and Last 2 Weeks

Now
95 °F

Clear.


Feels Like: 116 °F
Forecast: 91 / 102 °F
Wind: 5 mph from North

Location: Doha International Airport

Current Time: Jul 27, 2016 at 8:23:46 PM

Latest Report: Jul 27, 2016 at 8:00 PM


Visibility: 10 mi

Pressure: 29.47 "Hg

Humidity: 63%

Dew Point: 81 °F

Location of Al-JamiliyahLocation

Past Weather in Al-Jamiliyah — Graph

°F

Al-Jamiliyah Temperature Yesterday

Maximum temperature yesterday: 102 °F (at 3:00 PM)
Minimum temperature yesterday: 95 °F (at 1:00 AM)
Average temperature yesterday: 98 °F

High & Low Weather Summary for the Past Weeks

 TemperatureHumidityPressure
High117 °F (Jul 20, 1:00 PM)80% (Jul 18, 4:00 AM)29.56 "Hg (Jul 18, 4:00 AM)
Low91 °F (Jul 15, 3:00 AM)2% (Jul 13, 12:00 PM)29.33 "Hg (Jul 23, 1:00 PM)
Average99 °F46%29.45 "Hg
* Reported Jul 12 7:00 PM — Jul 27 7:00 PM, Al-Jamiliyah, Weather by CustomWeather, © 2016

Note: Actual official high and low records may vary slightly from our data, if they occured in-between our weather recording intervals... More about our weather records

Advertising

Al-Jamiliyah Weather History for the Previous 24 Hours

Scroll right to see more
 ConditionsComfort  
Time TempWeatherWind HumidityBarometerVisibility
7:00 PM
Wed, Jul 27
99 °FClear.6 mph44%29.47 "Hg10 mi
6:00 PM97 °FSunny.7 mph60%29.47 "Hg10 mi
5:00 PM99 °FSunny.9 mph53%29.45 "Hg10 mi
4:00 PM100 °FClear.12 mph53%29.45 "Hg6 mi
3:00 PM99 °FClear.13 mph57%29.47 "Hg6 mi
2:00 PM99 °FClear.9 mph57%29.47 "Hg4 mi
1:00 PM100 °FClear.12 mph50%29.47 "Hg4 mi
12:00 PM99 °FClear.9 mph53%29.50 "Hg4 mi
11:00 AM99 °FClear.8 mph53%29.50 "Hg5 mi
10:00 AM100 °FClear.8 mph53%29.50 "Hg5 mi
9:00 AM99 °FClear.7 mph50%29.53 "Hg6 mi
8:00 AM99 °FClear.5 mph53%29.53 "Hg6 mi
7:00 AM99 °FClear.2 mph57%29.50 "Hg6 mi
6:00 AM95 °FClear.3 mph67%29.50 "Hg4 mi
5:00 AM93 °FClear.3 mph71%29.50 "Hg4 mi
4:00 AM93 °FClear.3 mph71%29.47 "Hg4 mi
3:00 AM93 °FHaze.3 mph75%29.45 "Hg3 mi
1:00 AM95 °FClear.3 mph63%29.45 "Hg4 mi
12:00 AM97 °FClear.7 mph56%29.47 "Hg6 mi
11:00 PM
Tue, Jul 26
97 °FClear.7 mph67%29.47 "Hg10 mi
10:00 PM99 °FClear.5 mph57%29.47 "Hg10 mi
9:00 PM99 °FPassing clouds.5 mph57%29.47 "HgN/A
8:00 PM97 °FClear.3 mph67%29.47 "Hg6 mi
Weather by CustomWeather, © 2016

See weather overviewHow to use our weather pages